When you browse on this site, cookies collect data to enhance your experience and personalize the content and advertising you see.
Visit our Privacy Policy to learn more. By continuing to use the site, you agree to this use of cookies and data.
EN

Hourly Weather Andora

Today, 6 July, Monday

Time Temperature Precipitation Wind Pressure Humidity
00:00 +13°C° 0 mm 2 mps 627 mmHg 83%
01:00 +12°C° 0 mm 2 mps 627 mmHg 83%
02:00 +12°C° 0 mm 2 mps 627 mmHg 84%
03:00 +12°C° 0 mm 2 mps 627 mmHg 85%
04:00 +13°C° 0 mm 2 mps 627 mmHg 83%
05:00 +13°C° 0 mm 2 mps 627 mmHg 82%
06:00 +14°C° 0 mm 2 mps 627 mmHg 81%
07:00 +16°C° 0 mm 2 mps 628 mmHg 74%
08:00 +18°C° 0 mm 2 mps 629 mmHg 68%
09:00 +19°C° 0 mm 2 mps 630 mmHg 61%
10:00 +21°C° 0 mm 2 mps 630 mmHg 57%
11:00 +23°C° 0 mm 2 mps 630 mmHg 54%
12:00 +24°C° 0 mm 2 mps 631 mmHg 50%
13:00 +23°C° 0 mm 2 mps 630 mmHg 52%
14:00 +22°C° 0 mm 3 mps 630 mmHg 54%
15:00 +21°C° 0 mm 3 mps 629 mmHg 56%
16:00 +20°C° 0 mm 3 mps 629 mmHg 62%
17:00 +18°C° 0 mm 3 mps 628 mmHg 67%
18:00 +17°C° 0 mm 3 mps 628 mmHg 72%
19:00 +14°C° 0 mm 3 mps 627 mmHg 78%
20:00 +13°C° 0 mm 3 mps 627 mmHg 83%
21:00 +11°C° 0 mm 3 mps 627 mmHg 88%
22:00 +11°C° 0 mm 3 mps 627 mmHg 88%
23:00 +10°C° 0 mm 2 mps 626 mmHg 88%

Tomorrow, 7 July, Tuesday

Time Temperature Precipitation Wind Pressure Humidity
00:00 +10°C° 0 mm 2 mps 626 mmHg 87%
01:00 +9°C° 0 mm 2 mps 626 mmHg 80%
02:00 +9°C° 0 mm 2 mps 625 mmHg 72%
03:00 +9°C° 0 mm 2 mps 625 mmHg 64%
04:00 +9°C° 0 mm 2 mps 625 mmHg 59%
05:00 +10°C° 0 mm 2 mps 626 mmHg 55%
06:00 +12°C° 0 mm 2 mps 626 mmHg 51%
07:00 +14°C° 0 mm 2 mps 627 mmHg 43%
08:00 +18°C° 0 mm 1 mps 628 mmHg 35%
09:00 +21°C° 0 mm 1 mps 629 mmHg 28%
10:00 +22°C° 0 mm 1 mps 629 mmHg 28%
11:00 +23°C° 0 mm 1 mps 630 mmHg 29%
12:00 +24°C° 0 mm 2 mps 630 mmHg 29%
13:00 +24°C° 0 mm 2 mps 630 mmHg 32%
14:00 +24°C° 0 mm 2 mps 629 mmHg 35%
15:00 +24°C° 0 mm 2 mps 629 mmHg 38%
16:00 +22°C° 0 mm 1 mps 629 mmHg 45%
17:00 +21°C° 0 mm 1 mps 628 mmHg 53%
18:00 +20°C° 0 mm 1 mps 628 mmHg 60%
19:00 +18°C° 0 mm 1 mps 627 mmHg 69%
20:00 +15°C° 0 mm 1 mps 627 mmHg 78%
21:00 +12°C° 0 mm 0 mps 626 mmHg 87%
22:00 +12°C° 0 mm 0 mps 626 mmHg 88%
23:00 +12°C° 0 mm 0 mps 626 mmHg 88%

Day after tomorrow, 8 July, Wednesday

Time Temperature Precipitation Wind Pressure Humidity
00:00 +11°C° 0 mm 0 mps 626 mmHg 89%
01:00 +12°C° 0 mm 1 mps 626 mmHg 90%
02:00 +12°C° 0 mm 1 mps 626 mmHg 90%
03:00 +12°C° 0 mm 1 mps 626 mmHg 90%
04:00 +13°C° 0 mm 1 mps 626 mmHg 86%
05:00 +14°C° 0 mm 1 mps 627 mmHg 82%
06:00 +15°C° 0 mm 1 mps 627 mmHg 78%
07:00 +18°C° 0 mm 1 mps 628 mmHg 68%
08:00 +20°C° 0 mm 1 mps 629 mmHg 58%
09:00 +23°C° 0 mm 1 mps 630 mmHg 48%
10:00 +24°C° 0 mm 1 mps 630 mmHg 45%
11:00 +25°C° 0 mm 2 mps 631 mmHg 42%
12:00 +26°C° 0 mm 2 mps 631 mmHg 39%
13:00 +26°C° 0 mm 2 mps 630 mmHg 39%
14:00 +26°C° 0 mm 2 mps 630 mmHg 40%
15:00 +26°C° 0 mm 2 mps 630 mmHg 40%
16:00 +25°C° 0 mm 2 mps 629 mmHg 48%
17:00 +23°C° 0 mm 1 mps 629 mmHg 55%
18:00 +22°C° 0 mm 1 mps 628 mmHg 63%
19:00 +20°C° 0.2 mm 1 mps 628 mmHg 72%
20:00 +18°C° 0.2 mm 1 mps 628 mmHg 81%
21:00 +15°C° 0.2 mm 1 mps 628 mmHg 89%
22:00 +15°C° 0.2 mm 1 mps 627 mmHg 88%
23:00 +15°C° 0.2 mm 1 mps 627 mmHg 87%

9 July, Thursday

Time Temperature Precipitation Wind Pressure Humidity
00:00 +15°C° 0.2 mm 1 mps 627 mmHg 85%
01:00 +15°C° 0 mm 1 mps 627 mmHg 80%
02:00 +15°C° 0 mm 1 mps 626 mmHg 76%
03:00 +15°C° 0 mm 1 mps 626 mmHg 71%
04:00 +15°C° 0 mm 1 mps 627 mmHg 71%
05:00 +16°C° 0 mm 1 mps 627 mmHg 71%
06:00 +18°C° 0 mm 1 mps 628 mmHg 71%
07:00 +20°C° 0 mm 1 mps 628 mmHg 65%
08:00 +22°C° 0 mm 1 mps 629 mmHg 58%
09:00 +24°C° 0 mm 1 mps 630 mmHg 52%
10:00 +24°C° 0.1 mm 1 mps 630 mmHg 50%
11:00 +25°C° 0.1 mm 2 mps 630 mmHg 47%
12:00 +26°C° 0.1 mm 2 mps 631 mmHg 45%
13:00 +26°C° 0.8 mm 2 mps 630 mmHg 48%
14:00 +25°C° 0.8 mm 2 mps 630 mmHg 51%
15:00 +24°C° 0.8 mm 2 mps 629 mmHg 54%
16:00 +23°C° 1.4 mm 2 mps 629 mmHg 60%
17:00 +22°C° 1.4 mm 1 mps 628 mmHg 66%
18:00 +21°C° 1.4 mm 1 mps 628 mmHg 72%
19:00 +19°C° 0.1 mm 1 mps 627 mmHg 72%
20:00 +18°C° 0.1 mm 1 mps 627 mmHg 73%
21:00 +15°C° 0.1 mm 1 mps 627 mmHg 73%
22:00 +15°C° 0.1 mm 1 mps 627 mmHg 74%
23:00 +15°C° 0.1 mm 1 mps 626 mmHg 74%

10 July, Friday

Time Temperature Precipitation Wind Pressure Humidity
00:00 +14°C° 0.1 mm 1 mps 626 mmHg 75%
01:00 +14°C° 0 mm 1 mps 626 mmHg 74%
02:00 +14°C° 0 mm 1 mps 626 mmHg 74%
03:00 +14°C° 0 mm 1 mps 626 mmHg 74%
04:00 +14°C° 0.1 mm 1 mps 626 mmHg 75%
05:00 +14°C° 0.1 mm 0 mps 626 mmHg 76%
06:00 +15°C° 0.1 mm 0 mps 627 mmHg 78%
07:00 +19°C° 0.2 mm 1 mps 628 mmHg 70%
08:00 +20°C° 0.2 mm 1 mps 628 mmHg 63%
09:00 +22°C° 0.2 mm 1 mps 629 mmHg 55%
10:00 +23°C° 0.1 mm 2 mps 629 mmHg 53%
11:00 +23°C° 0.1 mm 2 mps 629 mmHg 50%
12:00 +24°C° 0.1 mm 3 mps 630 mmHg 47%
13:00 +24°C° 0.2 mm 3 mps 629 mmHg 49%
14:00 +22°C° 0.2 mm 3 mps 629 mmHg 52%
15:00 +22°C° 0.2 mm 3 mps 629 mmHg 54%
16:00 +21°C° 0.2 mm 2 mps 628 mmHg 60%
17:00 +20°C° 0.2 mm 2 mps 628 mmHg 66%
18:00 +20°C° 0.2 mm 1 mps 627 mmHg 72%
19:00 +19°C° 0.1 mm 1 mps 627 mmHg 78%
20:00 +16°C° 0.1 mm 1 mps 627 mmHg 83%
21:00 +15°C° 0.1 mm 1 mps 627 mmHg 89%
22:00 +14°C° 0 mm 1 mps 627 mmHg 90%
23:00 +14°C° 0 mm 1 mps 627 mmHg 91%

11 July, Saturday

Time Temperature Precipitation Wind Pressure Humidity
00:00 +13°C° 0 mm 1 mps 627 mmHg 92%
01:00 +12°C° 0 mm 0 mps 626 mmHg 93%
02:00 +12°C° 0 mm 0 mps 626 mmHg 93%
03:00 +11°C° 0 mm 0 mps 626 mmHg 93%
04:00 +12°C° 0 mm 0 mps 626 mmHg 92%
05:00 +13°C° 0 mm 0 mps 627 mmHg 90%
06:00 +13°C° 0 mm 0 mps 627 mmHg 88%
07:00 +16°C° 0 mm 1 mps 628 mmHg 80%
08:00 +19°C° 0 mm 1 mps 629 mmHg 72%
09:00 +20°C° 0 mm 2 mps 629 mmHg 63%
10:00 +21°C° 0 mm 2 mps 630 mmHg 59%
11:00 +23°C° 0 mm 2 mps 630 mmHg 55%
12:00 +24°C° 0 mm 3 mps 630 mmHg 51%
13:00 +24°C° 0.4 mm 2 mps 630 mmHg 56%
14:00 +23°C° 0.4 mm 2 mps 629 mmHg 62%
15:00 +21°C° 0.4 mm 2 mps 628 mmHg 67%
16:00 +21°C° 0.6 mm 1 mps 628 mmHg 71%
17:00 +21°C° 0.6 mm 1 mps 628 mmHg 75%
18:00 +20°C° 0.6 mm 1 mps 627 mmHg 79%
19:00 +19°C° 0.1 mm 1 mps 627 mmHg 83%
20:00 +16°C° 0.1 mm 1 mps 627 mmHg 87%
21:00 +15°C° 0.1 mm 1 mps 627 mmHg 91%
22:00 +14°C° 0 mm 1 mps 626 mmHg 91%
23:00 +14°C° 0 mm 1 mps 626 mmHg 91%
Show more